This is the latest recevied weather packets stored in our database for station/object KE0LFX. If no packets are shown the sender has not sent any weather packets the latest 10 day(s).
| Time | Temp. | Humidity | Pressure | Rain* | Wind** | Luminosity | Snow |
|---|---|---|---|---|---|---|---|
| 1777212488 | 12.22° C | 84% | 1020 hPa | 0 mm | - | 99 W/m² | - |
| 1777212183 | 12.22° C | 83% | 1020 hPa | 0 mm | - | 64 W/m² | - |
| 1777211878 | 12.22° C | 84% | 1020 hPa | 0 mm | - | 61 W/m² | - |
| 1777211576 | 11.67° C | 85% | 1020 hPa | 0 mm | - | 50 W/m² | - |
| 1777211273 | 11.67° C | 85% | 1020.2 hPa | 0 mm | - | 65 W/m² | - |
| 1777210969 | 11.11° C | 85% | 1020 hPa | 0 mm | - | 49 W/m² | - |
| 1777210664 | 10.56° C | 86% | 1020 hPa | 0 mm | - | 47 W/m² | - |
| 1777210360 | 10.56° C | 86% | 1020.1 hPa | 0 mm | - | 46 W/m² | - |
| 1777210057 | 10° C | 87% | 1020.3 hPa | 0 mm | - | 46 W/m² | - |
| 1777209752 | 10° C | 88% | 1020.3 hPa | 0 mm | - | 50 W/m² | - |
| 1777209448 | 10° C | 88% | 1020.1 hPa | 0 mm | - | 49 W/m² | - |
| 1777209140 | 9.44° C | 88% | 1020.1 hPa | 0 mm | - | 51 W/m² | - |
| 1777208835 | 9.44° C | 88% | 1020.3 hPa | 0 mm | - | 55 W/m² | - |
| 1777208532 | 9.44° C | 87% | 1020.3 hPa | 0 mm | - | 60 W/m² | - |
| 1777208229 | 9.44° C | 87% | 1020.2 hPa | 0 mm | - | 63 W/m² | - |
| 1777207924 | 9.44° C | 87% | 1020.4 hPa | 0 mm | - | 66 W/m² | - |
| 1777207619 | 9.44° C | 87% | 1020.3 hPa | 0 mm | - | 72 W/m² | - |
| 1777207314 | 9.44° C | 87% | 1020.3 hPa | 0 mm | - | 72 W/m² | - |
| 1777207013 | 9.44° C | 87% | 1020.4 hPa | 0 mm | - | 70 W/m² | - |
| 1777206710 | 9.44° C | 88% | 1020.4 hPa | 0 mm | - | 65 W/m² | - |
| 1777206404 | 9.44° C | 88% | 1020.2 hPa | 0 mm | - | 54 W/m² | - |
| 1777206099 | 9.44° C | 88% | 1020.3 hPa | 0 mm | - | 45 W/m² | - |
| 1777205797 | 8.89° C | 88% | 1020.2 hPa | 0 mm | - | 41 W/m² | - |
| 1777205493 | 8.89° C | 88% | 1020.1 hPa | 0 mm | - | 38 W/m² | - |
| 1777205189 | 8.89° C | 89% | 1020.1 hPa | 0 mm | - | 35 W/m² | - |
* Rain latest hour (hover to see other rain measurements)
** Current wind speed in m/s (hover to see current wind gust speed)